Wind_Speed
1 0 1 7 12 16 15 15 13 12 17 25 28 26 26 28 32 36 38 40 43 44 46 49 49 49 47 46 43 40 38 37 37 37 37 37 36 33 31 30 28 27 25 23
4 6 5 9 9 8 8 10 13 16 20 24 28 28 26 27 29 34 38 39 41 43 45 45 46 48 45 43 37 34 35 36 37 38 38 37 35 32 30 28 26 25 23 21
8 6 7 6 5 6 8 10 13 17 20 22 22 21 18 17 22 28 32 34 37 40 41 41 41 39 36 34 32 31 33 36 37 38 37 35 33 31 30 27 25 24 22 20
4 7 10 6 8 8 10 13 18 19 19 18 16 16 14 16 21 26 29 31 34 37 40 40 38 36 29 28 29 32 34 35 36 37 37 34 32 31 29 27 26 24 23 23
4 8 8 7 8 10 11 13 13 12 12 12 12 12 15 18 21 26 29 31 33 37 38 37 39 39 35 32 30 33 34 35 35 35 35 33 33 31 29 27 26 26 26 26
3 7 7 7 8 10 10 8 6 11 15 19 19 13 15 21 24 28 31 33 35 36 37 38 38 38 38 39 37 35 35 34 34 34 35 34 33 31 29 28 28 28 29 30
2 4 6 9 10 10 9 9 10 14 21 25 14 7 18 23 24 26 29 31 33 35 36 37 38 38 39 39 40 40 37 36 35 36 37 37 35 32 31 30 30 30 32 33
5 5 5 11 13 12 10 8 10 15 16 18 19 19 24 27 28 28 29 31 35 36 37 39 40 41 42 42 43 42 42 42 41 41 42 41 40 38 36 35 33 34 35 36
7 6 8 13 14 12 12 11 11 15 14 13 16 28 29 28 31 30 30 35 39 40 41 43 45 46 47 47 48 48 48 48 48 48 47 47 46 45 43 42 41 39 39 39
8 9 7 9 11 14 16 17 16 16 17 17 16 29 32 33 33 36 39 41 42 43 44 46 48 50 51 52 53 54 54 54 54 55 55 54 54 53 52 50 49 48 46 44
8 8 7 9 11 12 16 17 18 20 20 21 21 29 32 35 37 40 41 43 45 46 48 50 52 54 55 57 58 59 60 60 60 60 60 60 60 60 59 58 57 56 54 51
10 11 10 10 12 14 17 21 22 23 23 23 25 33 33 35 39 41 43 46 48 50 52 54 56 57 59 60 61 62 63 64 64 65 65 65 65 64 64 64 63 62 60 58
11 12 11 10 13 16 19 21 24 26 27 28 30 35 36 37 40 43 46 49 52 54 57 59 61 62 64 65 66 67 68 68 69 69 68 68 68 68 68 67 67 66 65 64
12 13 13 12 12 16 19 21 24 26 28 30 32 38 42 43 44 48 51 55 58 61 64 66 68 69 71 72 73 74 75 75 75 75 75 74 74 74 73 72 71 70 69 67
14 15 15 15 14 15 18 20 22 26 30 34 37 41 46 49 51 54 57 60 63 66 69 71 73 74 76 77 76 75 73 72 72 72 73 74 75 77 78 78 78 77 75 73
17 16 16 16 16 17 20 21 25 30 35 39 42 45 49 53 56 59 62 65 68 71 73 75 75 74 71 67 62 57 55 53 51 51 51 53 56 60 65 71 76 78 80 80
18 19 19 18 18 20 24 27 31 35 39 44 46 49 52 55 59 62 65 68 72 73 73 69 62 55 49 46 44 43 43 42 42 41 41 41 41 42 43 47 53 60 67 73
18 19 20 21 22 23 27 29 34 38 42 46 48 51 55 58 62 65 68 71 71 67 59 51 46 43 43 43 43 44 44 44 44 43 42 42 41 40 39 39 40 43 48 54
20 21 22 23 23 29 32 34 38 42 45 50 52 56 59 63 66 67 67 65 59 52 47 45 45 45 45 45 46 47 48 47 47 46 46 45 43 42 41 39 37 37 38 40
24 24 24 26 29 32 35 40 43 47 49 54 57 60 63 66 69 66 60 54 49 47 47 48 48 48 48 49 50 51 50 50 49 48 47 45 45 44 43 41 40 39 39 37
22 24 26 29 31 37 39 43 45 48 52 54 57 61 65 68 66 61 54 49 47 48 49 50 50 51 52 53 53 53 52 51 50 49 48 46 45 43 42 40 39 38 37 36
24 27 29 32 35 39 42 45 48 52 55 58 61 65 67 65 59 54 50 49 49 50 50 51 52 53 54 54 54 53 52 50 49 48 46 45 43 42 41 39 37 36 35 33
26 28 31 34 36 40 44 48 51 55 58 60 64 66 67 62 55 50 49 49 50 51 52 54 55 55 55 55 54 53 51 50 48 47 44 42 41 40 39 37 35 33 32 31
31 31 33 35 39 42 47 50 53 56 59 62 65 67 64 57 52 50 48 49 50 52 54 55 56 56 55 54 53 52 51 49 46 43 41 41 40 38 36 33 32 31 30 29
29 32 35 39 42 44 47 50 54 56 59 63 65 65 60 54 51 49 49 50 52 55 56 57 57 57 56 54 52 50 47 44 42 40 37 37 35 33 31 29 29 28 27 26
32 35 38 41 44 46 48 52 55 57 60 63 65 63 56 51 49 48 50 52 55 57 58 58 57 56 55 52 48 45 41 38 36 34 33 31 30 28 27 26 24 24 23 22
Wind_Direction
296 148 282 246 240 238 232 217 214 222 242 255 257 259 260 260 263 266 269 273 276 278 279 278 277 276 273 272 273 275 277 281 285 290 294 298 299 298 295 292 289 285 280 275
288 214 240 280 269 258 256 254 246 241 246 259 268 274 271 267 268 271 275 278 278 278 276 273 273 271 265 263 266 267 271 280 285 290 294 298 298 296 292 289 285 279 273 269
304 312 309 310 301 285 267 255 247 246 249 259 277 289 289 279 270 272 279 281 280 278 277 272 265 264 258 258 264 268 273 279 285 290 293 296 295 294 292 287 280 272 266 261
274 297 308 298 284 273 274 264 258 262 266 268 271 277 277 264 260 266 276 283 285 282 282 281 275 276 273 271 271 277 278 282 287 289 291 291 291 291 289 283 276 265 257 256
279 298 310 306 291 291 282 275 277 280 280 271 260 261 260 255 258 269 281 289 292 290 289 291 292 292 286 289 289 290 288 287 287 287 286 287 290 290 287 279 272 264 256 257
26 352 344 331 324 316 315 314 314 306 286 270 250 224 248 261 276 284 290 293 294 294 294 295 297 296 295 294 294 296 294 292 288 286 287 288 289 288 286 280 273 264 260 259
84 278 303 325 328 313 309 317 319 316 317 324 319 265 255 276 289 293 294 296 297 297 296 295 295 293 292 292 292 294 292 291 287 285 286 286 285 284 282 279 276 271 267 265
319 330 329 314 317 325 327 328 323 310 307 316 318 290 278 280 283 288 294 298 299 299 298 297 296 294 293 291 290 290 288 286 284 283 283 283 283 281 279 276 274 272 271 270
320 318 303 306 317 327 330 323 305 300 304 304 297 290 287 288 288 286 293 298 300 298 297 296 295 294 293 291 289 287 286 284 282 281 280 280 279 278 276 274 271 268 268 269
304 297 290 297 306 311 317 320 318 314 308 299 297 296 296 297 297 300 300 299 299 298 296 294 292 290 289 288 287 285 284 283 281 280 279 278 277 275 274 272 271 269 267 266
304 306 314 310 301 300 303 311 308 306 304 298 293 287 288 293 295 296 297 297 296 295 294 293 291 289 288 287 285 284 282 281 279 278 277 276 275 274 272 271 270 268 267 266
310 316 318 313 298 291 304 313 315 313 309 304 300 291 295 295 295 296 296 296 295 294 293 292 291 290 289 288 286 285 283 281 279 277 275 274 273 272 271 270 268 268 267 265
316 318 315 311 303 304 310 312 308 306 306 306 302 296 299 299 299 298 297 296 296 296 295 294 293 292 290 289 287 285 283 281 279 277 275 273 271 270 269 268 267 266 265 265
321 318 315 310 302 299 301 302 303 305 306 306 304 303 304 304 303 302 301 301 300 299 298 297 295 294 291 289 287 285 283 281 278 276 274 272 270 268 267 266 265 264 264 263
331 326 323 320 312 301 299 305 311 310 309 308 308 308 307 307 307 306 305 304 302 301 300 299 297 294 293 291 289 288 286 284 282 279 276 273 270 267 265 264 263 262 261 261
335 333 329 325 321 313 310 317 316 313 311 311 311 312 311 310 310 309 309 307 305 304 302 300 298 296 296 295 295 294 293 292 290 288 285 280 276 272 268 265 262 261 260 260
339 337 335 332 329 323 317 324 318 316 317 316 316 316 314 313 313 313 312 309 307 306 304 303 303 303 303 302 301 300 298 297 296 294 292 290 288 284 279 274 269 265 262 259
344 340 337 337 337 324 325 324 320 320 320 318 319 318 318 317 317 317 315 312 311 310 310 311 309 307 306 305 303 301 299 297 295 292 291 290 288 287 286 283 278 273 269 264
347 344 340 341 337 324 330 329 326 325 325 323 323 323 323 322 322 321 318 316 315 315 314 312 310 308 307 305 303 301 299 296 293 291 289 287 285 285 284 283 282 279 276 272
343 341 342 341 336 329 335 330 330 329 329 328 328 326 324 324 323 323 321 320 319 316 314 312 310 308 306 304 302 300 298 295 292 290 287 285 283 283 280 279 278 277 275 272
336 339 341 341 338 333 335 331 330 329 329 327 326 326 327 328 327 327 326 323 320 317 315 313 311 308 306 304 302 300 298 296 293 290 287 284 282 281 280 278 275 273 272 269
338 340 341 340 338 333 332 330 331 331 330 330 330 331 331 331 330 329 327 325 322 320 317 314 312 310 308 306 304 301 298 296 293 290 286 284 281 279 279 276 271 269 268 264
338 339 339 338 335 332 331 332 332 332 332 333 333 334 334 334 333 331 330 328 326 323 320 317 314 313 310 308 305 302 300 296 292 289 285 282 281 278 277 274 268 265 263 260
332 336 334 333 334 334 333 333 333 333 334 335 336 337 336 336 335 334 333 332 329 326 323 321 318 316 314 310 306 303 299 295 291 288 284 281 280 278 275 270 264 261 257 255
328 330 333 334 334 334 332 331 333 335 336 337 339 339 339 338 337 337 336 334 332 330 327 325 322 319 317 313 309 305 301 296 290 286 283 282 279 276 271 265 261 256 251 248
330 331 332 333 333 332 333 333 335 337 339 340 341 342 341 339 339 339 338 336 334 333 331 330 328 325 322 319 314 309 304 298 292 286 281 279 277 273 266 260 254 245 241 238
Height
5869 5871 5871 5870 5871 5872 5874 5875 5877 5880 5878 5874 5873 5874 5876 5875 5873 5872 5870 5868 5865 5862 5859 5853 5846 5840 5837 5834 5831 5834 5837 5839 5839 5839 5838 5837 5836 5835 5834 5833 5832 5831 5830 5830
5869 5868 5868 5868 5869 5869 5871 5873 5874 5874 5871 5869 5868 5868 5869 5868 5867 5865 5863 5862 5858 5853 5845 5839 5836 5826 5823 5821 5819 5824 5827 5830 5831 5831 5830 5830 5828 5828 5827 5826 5826 5825 5824 5824
5867 5866 5867 5868 5868 5868 5868 5868 5867 5866 5864 5864 5864 5864 5863 5862 5860 5858 5855 5853 5850 5844 5835 5828 5820 5812 5806 5803 5808 5813 5819 5822 5823 5823 5823 5822 5822 5821 5820 5820 5819 5819 5819 5819
5868 5868 5866 5866 5866 5865 5865 5863 5862 5861 5861 5861 5863 5861 5859 5856 5853 5850 5848 5846 5842 5836 5828 5820 5810 5806 5801 5799 5802 5809 5813 5814 5815 5815 5816 5815 5815 5814 5814 5813 5813 5813 5813 5814
5866 5866 5865 5864 5864 5862 5861 5859 5858 5858 5857 5856 5857 5857 5855 5850 5848 5845 5844 5841 5838 5832 5824 5818 5811 5808 5805 5802 5801 5806 5806 5807 5807 5807 5807 5807 5807 5807 5806 5806 5806 5806 5807 5808
5865 5865 5864 5863 5862 5861 5859 5857 5856 5855 5853 5850 5847 5848 5848 5845 5844 5843 5841 5838 5833 5827 5821 5817 5813 5809 5806 5804 5801 5800 5801 5801 5800 5800 5800 5800 5800 5799 5799 5798 5798 5799 5799 5800
5862 5863 5863 5862 5861 5860 5858 5857 5856 5854 5849 5844 5841 5842 5842 5840 5839 5838 5835 5832 5828 5823 5818 5814 5810 5806 5803 5801 5797 5796 5796 5795 5794 5793 5793 5792 5792 5792 5791 5791 5791 5791 5791 5791
5860 5860 5862 5862 5860 5858 5856 5855 5856 5853 5851 5849 5843 5840 5837 5834 5833 5832 5830 5827 5823 5818 5814 5809 5804 5801 5798 5795 5793 5790 5789 5787 5786 5785 5784 5783 5782 5782 5782 5782 5783 5783 5782 5782
5862 5863 5863 5862 5859 5857 5856 5854 5853 5850 5848 5847 5846 5837 5833 5828 5826 5825 5823 5821 5817 5812 5807 5802 5796 5792 5788 5786 5783 5781 5779 5777 5775 5774 5773 5771 5771 5771 5771 5771 5771 5772 5772 5772
5862 5862 5861 5860 5860 5857 5855 5852 5850 5848 5845 5843 5843 5833 5829 5825 5822 5820 5817 5813 5809 5804 5799 5793 5788 5783 5778 5774 5770 5768 5766 5764 5762 5760 5759 5758 5758 5757 5757 5757 5758 5758 5760 5761
5861 5860 5860 5858 5857 5856 5854 5851 5848 5845 5842 5839 5837 5833 5826 5822 5818 5814 5809 5805 5800 5795 5789 5783 5777 5772 5767 5762 5757 5753 5750 5748 5746 5744 5743 5742 5741 5741 5741 5741 5742 5743 5744 5746
5860 5859 5857 5856 5854 5852 5850 5848 5845 5842 5838 5835 5831 5827 5822 5817 5812 5807 5801 5795 5790 5784 5777 5771 5765 5759 5754 5748 5743 5738 5734 5731 5728 5726 5725 5724 5723 5722 5722 5723 5723 5725 5726 5729
5858 5856 5855 5854 5852 5848 5846 5844 5841 5838 5834 5830 5825 5820 5814 5810 5805 5798 5791 5784 5778 5771 5764 5757 5750 5744 5737 5731 5726 5721 5716 5712 5708 5706 5705 5703 5702 5702 5702 5702 5703 5705 5707 5709
5855 5853 5852 5851 5848 5846 5844 5841 5837 5833 5829 5824 5819 5812 5805 5800 5795 5788 5780 5773 5765 5756 5748 5740 5733 5725 5718 5711 5704 5698 5693 5688 5685 5682 5681 5679 5678 5678 5679 5680 5682 5684 5686 5689
5853 5851 5848 5846 5844 5842 5840 5837 5833 5828 5823 5818 5812 5806 5797 5790 5783 5775 5768 5759 5750 5739 5730 5721 5712 5703 5694 5686 5679 5672 5666 5661 5657 5655 5653 5653 5652 5652 5653 5655 5657 5660 5663 5667
5851 5848 5845 5843 5840 5837 5835 5832 5828 5822 5816 5810 5804 5798 5789 5779 5771 5762 5753 5742 5731 5720 5710 5699 5688 5678 5670 5662 5655 5649 5644 5639 5635 5632 5629 5627 5626 5626 5627 5628 5631 5634 5638 5642
5848 5845 5842 5839 5836 5833 5829 5826 5821 5815 5808 5801 5794 5788 5778 5769 5759 5748 5738 5725 5712 5700 5688 5676 5666 5657 5650 5644 5639 5634 5630 5625 5622 5618 5615 5612 5610 5609 5608 5607 5608 5610 5612 5616
5846 5842 5839 5835 5832 5828 5827 5820 5814 5809 5802 5793 5786 5777 5767 5757 5746 5734 5720 5704 5691 5679 5668 5659 5651 5645 5639 5633 5627 5622 5617 5613 5609 5605 5602 5599 5597 5596 5594 5593 5592 5591 5591 5593
5843 5840 5836 5832 5829 5824 5818 5814 5807 5800 5793 5783 5774 5764 5753 5741 5730 5718 5702 5686 5674 5663 5655 5648 5641 5634 5627 5621 5615 5609 5604 5599 5595 5591 5588 5585 5583 5582 5581 5580 5578 5577 5576 5576
5840 5837 5833 5828 5824 5819 5815 5806 5799 5792 5784 5772 5762 5752 5741 5728 5715 5704 5688 5674 5663 5653 5644 5636 5629 5622 5615 5608 5601 5595 5589 5584 5579 5575 5572 5570 5568 5566 5566 5565 5564 5563 5563 5563
5840 5835 5830 5825 5819 5812 5809 5800 5794 5786 5778 5767 5756 5743 5729 5714 5699 5685 5673 5663 5653 5644 5634 5625 5617 5609 5601 5593 5585 5579 5573 5567 5562 5558 5555 5553 5551 5550 5550 5550 5549 5549 5549 5550
5836 5831 5826 5821 5815 5810 5801 5794 5786 5777 5766 5755 5743 5730 5715 5701 5686 5673 5662 5652 5642 5633 5623 5613 5604 5595 5586 5577 5569 5562 5556 5550 5545 5541 5538 5537 5535 5534 5534 5534 5535 5535 5536 5538
5832 5827 5821 5817 5813 5804 5795 5787 5778 5768 5757 5745 5732 5718 5703 5689 5676 5664 5653 5643 5632 5622 5611 5601 5590 5580 5571 5561 5551 5544 5538 5532 5528 5524 5522 5520 5519 5519 5519 5519 5521 5522 5524 5526
5826 5823 5818 5812 5806 5798 5789 5780 5772 5761 5749 5736 5722 5707 5692 5678 5666 5655 5645 5634 5623 5612 5600 5588 5576 5565 5555 5544 5535 5526 5520 5514 5509 5507 5505 5505 5504 5504 5505 5506 5508 5510 5513 5516
5824 5818 5813 5806 5799 5792 5784 5774 5764 5754 5741 5727 5713 5698 5683 5669 5658 5647 5637 5626 5614 5601 5588 5575 5562 5549 5538 5527 5517 5509 5501 5496 5492 5490 5490 5489 5489 5490 5491 5493 5496 5499 5503 5506
5818 5812 5807 5801 5793 5785 5777 5767 5756 5745 5733 5720 5705 5691 5676 5662 5651 5641 5630 5618 5605 5592 5577 5563 5549 5535 5522 5510 5500 5491 5484 5479 5476 5475 5475 5475 5476 5478 5480 5483 5486 5490 5494 5498